EB5EEV-10 Weather Reports


time (UTC)temp
C
wind
direction
speed
KPH
gust
KPH
rain 1hr
cm
rain 24hr
cm
rain mn
cm
humidity
%
barometer
mb
20260507140641 20 213 4.8 14.5 0.00 0.00 0.00 6 1007.5
20260507134902 20 250 8.0 17.7 0.00 0.00 0.00 6 1007.5
20260507133015 20 129 14.5 16.1 0.00 0.00 0.00 7 1008.0
20260507131228 20 231 9.7 11.3 0.00 0.00 0.00 7 1008.1
20260507125419 20 233 3.2 3.2 0.00 0.00 0.00 7 1008.0
20260507123542 20 333 8.0 8.0 0.00 0.00 0.00 7 1008.2
20260507121802 20 236 1.6 3.2 0.00 0.00 0.00 7 1008.2
20260507120114 20 221 9.7 9.7 0.00 0.00 0.00 7 1008.5
20260507114341 20 0 0.0 4.8 0.00 0.00 0.00 7 1008.9
20260507105933 20 225 1.6 4.8 0.00 0.00 0.00 7 1009.0
20260507104024 19 111 4.8 9.7 0.00 0.00 0.00 7 1009.0
20260507102107 19 0 0.0 8.0 0.00 0.00 0.00 7 1009.1
20260507100232 19 170 6.4 11.3 0.00 0.00 0.00 7 1009.3
20260507094352 18 135 1.6 4.8 0.00 0.00 0.00 7 1009.3
20260507085130 18 162 1.6 4.8 0.00 0.00 0.00 7 1009.4
20260507083257 -17 0 0.0 0.0 0.00 0.00 0.00 100 1009.2
20260507081557 -17 0 0.0 0.0 0.00 0.00 0.00 100 1009.1
20260507075815 -17 0 0.0 0.0 0.00 0.00 0.00 100 1009.1
20260507070538 -17 0 0.0 0.0 0.00 0.00 0.00 100 1008.8
20260507062852 -17 0 0.0 0.0 0.00 0.00 0.00 100 1008.9
20260507061032 -17 0 0.0 0.0 0.00 0.00 0.00 100 1008.8
20260507055231 -17 0 0.0 0.0 0.00 0.00 0.00 100 1008.6
20260507053542 -17 0 0.0 0.0 0.00 0.00 0.00 100 1008.3
20260507043957 -17 0 0.0 0.0 0.00 0.00 0.00 100 1008.2
20260507040442 -17 0 0.0 0.0 0.00 0.00 0.00 100 1008.3
20260507034727 -17 0 0.0 0.0 0.00 0.00 0.00 100 1008.2
20260507033011 -17 0 0.0 0.0 0.00 0.00 0.00 100 1008.3
20260507025342 -17 0 0.0 0.0 0.00 0.00 0.00 100 1008.6
20260507023656 -17 0 0.0 0.0 0.00 0.00 0.00 100 1008.7
20260507021756 -17 0 0.0 0.0 0.00 0.00 0.00 100 1008.6
20260507015858 -17 0 0.0 0.0 0.00 0.00 0.00 100 1008.6
20260507014103 -17 0 0.0 0.0 0.00 0.00 0.00 100 1008.5
20260507012412 -17 0 0.0 0.0 0.00 0.00 0.00 100 1008.4
20260507010622 -17 0 0.0 0.0 0.00 0.00 0.00 100 1008.5
20260507003013 -17 0 0.0 0.0 0.00 0.00 0.00 100 1008.6
20260507001330 -17 0 0.0 0.0 0.00 0.00 0.00 100 1008.8
20260506235557 -17 0 0.0 0.0 0.00 0.00 0.00 100 1008.8
20260506233722 -17 0 0.0 0.0 0.00 0.00 0.00 100 1009.1
20260506231946 -17 0 0.0 0.0 0.00 0.00 0.00 100 1009.1
20260506230106 -17 0 0.0 0.0 0.00 0.00 0.00 100 1009.2
20260506224257 -17 0 0.0 0.0 0.00 0.00 0.00 100 1009.2
20260506222534 -17 0 0.0 0.0 0.00 0.00 0.00 100 1009.2
20260506220852 -17 0 0.0 0.0 0.00 0.00 0.00 100 1009.3
20260506214950 -17 0 0.0 0.0 0.00 0.00 0.00 100 1009.3
20260506213118 -17 0 0.0 0.0 0.00 0.00 0.00 100 1009.3
20260506211252 -17 0 0.0 0.0 0.00 0.00 0.00 100 1009.0
20260506201958 -17 0 0.0 0.0 0.00 0.00 0.00 100 1008.6
20260506200245 -17 0 0.0 0.0 0.00 0.00 0.00 100 1008.3
20260506194517 -17 0 0.0 0.0 0.00 0.00 0.00 100 1007.8
20260506192815 -17 0 0.0 0.0 0.00 0.00 0.00 100 1007.7
20260506190955 -17 0 0.0 0.0 0.00 0.00 0.00 100 1007.6
20260506185255 -17 0 0.0 0.0 0.00 0.00 0.00 100 1007.6
20260506183507 -17 0 0.0 0.0 0.00 0.00 0.00 100 1007.6
20260506181630 -17 0 0.0 0.0 0.00 0.00 0.00 100 1007.5
20260506174157 -17 0 0.0 0.0 0.00 0.00 0.00 100 1007.5
20260506172315 -17 0 0.0 0.0 0.00 0.00 0.00 100 1007.6
20260506170602 -17 0 0.0 0.0 0.00 0.00 0.00 100 1007.5
20260506155332 -17 0 0.0 0.0 0.00 0.00 0.00 100 1007.7
20260506153557 20 0 0.0 0.0 0.00 0.00 0.00 6 1007.5
20260506144242 20 326 1.6 9.7 0.00 0.00 0.00 6 1007.8
20260506142323 20 318 4.8 4.8 0.00 0.00 0.00 6 1007.9